This is the latest recevied weather packets stored in our database for station/object EA1FBN. If no packets are shown the sender has not sent any weather packets the latest 10 day(s).
| Time | Temp. | Humidity | Pressure | Rain* | Wind** | Luminosity | Snow |
|---|---|---|---|---|---|---|---|
| 1787848453 | 15° C | 72% | 1013 hPa | 0.25 mm | - | - | - |
| 1787848153 | 15° C | 71% | 1013.1 hPa | 0.51 mm | - | - | - |
| 1787847853 | 15° C | 72% | 1013 hPa | 0.51 mm | - | - | - |
| 1787847553 | 15.56° C | 74% | 1013 hPa | 0.51 mm | - | - | - |
| 1787847253 | 15.56° C | 74% | 1013.1 hPa | 0.51 mm | - | - | - |
| 1787846953 | 16.11° C | 75% | 1013.1 hPa | 0.25 mm | - | - | - |
| 1787846653 | 16.11° C | 77% | 1013.1 hPa | 0.51 mm | - | - | - |
| 1787846353 | 16.11° C | 76% | 1013 hPa | 3.3 mm | - | - | - |
| 1787846053 | 16.11° C | 77% | 1013.1 hPa | 6.35 mm | - | - | - |
| 1787845753 | 16.11° C | 76% | 1012.9 hPa | 6.35 mm | - | - | - |
| 1787845453 | 16.11° C | 76% | 1012.8 hPa | 6.35 mm | - | - | - |
| 1787845153 | 15.56° C | 77% | 1013 hPa | 6.6 mm | - | - | - |
| 1787844853 | 15.56° C | 78% | 1012.8 hPa | 6.6 mm | - | - | - |
| 1787844553 | 15° C | 78% | 1012.8 hPa | 6.35 mm | - | - | - |
| 1787844253 | 14.44° C | 78% | 1012.8 hPa | 6.35 mm | - | - | - |
| 1787843953 | 13.89° C | 77% | 1012.8 hPa | 6.35 mm | - | - | - |
| 1787843653 | 13.33° C | 77% | 1013 hPa | 6.6 mm | - | - | - |
| 1787843353 | 12.78° C | 78% | 1013.2 hPa | 6.6 mm | - | - | - |
| 1787843053 | 12.78° C | 79% | 1013.2 hPa | 6.35 mm | - | - | - |
| 1787842753 | 13.33° C | 78% | 1013.1 hPa | 3.56 mm | - | - | - |
| 1787842453 | 14.44° C | 75% | 1013.2 hPa | 0.51 mm | - | - | - |
| 1787842153 | 14.44° C | 73% | 1012.8 hPa | 0.51 mm | - | - | - |
| 1787841853 | 14.44° C | 72% | 1012.9 hPa | 0.51 mm | - | - | - |
| 1787841553 | 16.11° C | 70% | 1012.9 hPa | 0.25 mm | - | - | - |
| 1787841253 | 16.67° C | 73% | 1012.6 hPa | 0.25 mm | - | - | - |
* Rain latest hour (hover to see other rain measurements)
** Current wind speed in m/s (hover to see current wind gust speed)